Meteo Giornale » Osservazioni meteo Germania » Lechfeld

ore: 21:20 - Osservazioni Meteo Lechfeld
Lat. 48° 11' N Lon. 10° 52' E Alt. 555 metri s.l.m.

nebbia Europe/Berlin

9 °C

Nebbia a Strati

Temp. 24 Ore

9 °C

17 °C

Sud

9.3 Km/h

Dew point 8 °C

Umidità 93 %

Visibilità  10 Km

Il sole sorge alle ore 06:55

Il sole tramonta alle ore 19:26

Data e Ora Cielo e Fenomeni T °C DP °C Um. % Pres. hPa Vis. km Vento km/h
Oggi h: 21:20 nebbia Nebbia a Strati 9 8 93 1017 10 S 9.3
Oggi h: 20:20 poco_nuvoloso Poco Nuvoloso 11 10 93 1016 10 N 0
Oggi h: 19:20 poco_nuvoloso Poco Nuvoloso 14 10 76 1016 10 S/SE 7.4
Oggi h: 18:20 nuvoloso Nuvoloso 16 9 63 1016 10 N 5.5
Oggi h: 17:20 molto_nuvoloso Molto Nuvoloso 17 7 51 1016 10 N 5.5
Oggi h: 16:20 molto_nuvoloso Molto Nuvoloso 17 8 55 1016 10 N/NE 7.4
Oggi h: 15:20 molto_nuvoloso Molto Nuvoloso 17 8 55 1016 10 N/NE 7.4
Oggi h: 14:20 molto_nuvoloso Molto Nuvoloso 16 7 55 1017 10 N 7.4
Oggi h: 13:20 molto_nuvoloso Molto Nuvoloso 16 8 58 1017 10 N 5.5
Oggi h: 12:20 molto_nuvoloso Molto Nuvoloso 16 10 67 1017 10 N 3.7
Oggi h: 12:00 molto_nuvoloso Molto Nuvoloso 15 10 72 1017 10 N 3.7
Oggi h: 11:20 molto_nuvoloso Molto Nuvoloso 15 11 76 1018 10 N 5.5
Oggi h: 10:20 molto_nuvoloso Molto Nuvoloso 14 11 82 1018 10 N 3.7
Oggi h: 09:20 molto_nuvoloso Molto Nuvoloso 13 11 87 1018 10 N 3.7
Oggi h: 08:20 molto_nuvoloso Molto Nuvoloso 12 10 87 1018 10 N 3.7
Oggi h: 07:20 molto_nuvoloso Molto Nuvoloso 12 10 87 1017 10 N 3.7
Oggi h: 06:20 molto_nuvoloso Molto Nuvoloso 11 10 93 1017 10 N 5.5
Oggi h: 05:20 molto_nuvoloso Molto Nuvoloso 11 10 93 1017 10 N 3.7
Oggi h: 04:32 molto_nuvoloso Molto Nuvoloso 10 10 100 1018 10 N 3.7
Oggi h: 04:20 nebbia Nebbia 9 9 100 1017 0.05 N 3.7
Oggi h: 03:20 nebbia Nebbia 10 9 93 1018 0.05 N 3.7
Oggi h: 02:38 nebbia Nebbia 9 9 100 1018 0.2 N 1.8
Oggi h: 01:20 molto_nuvoloso Molto Nuvoloso 12 11 93 1018 10 N 3.7
Oggi h: 00:20 molto_nuvoloso Molto Nuvoloso 12 11 93 1018 10 N 1.8
Ieri h: 23:20 molto_nuvoloso Molto Nuvoloso 13 11 87 1018 10 N 3.7